Regional Weather Roundup
Issued by NWS

Home | Current Version | Previous Version | Graphics & Text | Print | Product List | Glossary On
Versions: 1 2 3 4 5 6 7 8 9 10 11 12 13 14 15 16 17 18 19 20 21 22 23 24 25 26 27 28 29 30 31 32 33 34 35 36 37 38 39 40 41 42 43 44 45 46 47 48 49 50
000
ASUS43 KLMK 220910
RWRKY
KENTUCKY REGIONAL WEATHER ROUNDUP
NATIONAL WEATHER SERVICE LOUISVILLE KY
500 AM EDT MON SEP 22 2014

NOTE "FAIR" INDICATES FEW OR NO CLOUDS BELOW 12,000 FEET
WITH NO SIGNIFICANT WEATHER AND/OR OBSTRUCTIONS TO VISIBILITY.

KYZ001>023-026-027-061>063-070>075-221000-
WESTERN AND SOUTH CENTRAL KENTUCKY

CITY           SKY/WX    TMP DP  RH WIND       PRES   REMARKS
PADUCAH        CLEAR     58  51  78 NW3       30.14R
HENDERSON      CLEAR     55  48  76 N5        30.14S
OWENSBORO      CLEAR     56  51  83 N3        30.14R
HOPKINSVILLE   CLEAR     55  51  84 N6        30.13R
BOWLING GREEN  CLEAR     53  48  83 CALM      30.12R
GLASGOW        CLEAR     50  50 100 CALM      30.11S
$$

KYZ024-025-028>034-038-045-046-053-221000-
NORTH CENTRAL KENTUCKY

CITY           SKY/WX    TMP DP  RH WIND       PRES   REMARKS
LOUISVILLE/SDF MOCLDY    57  50  77 N7        30.12R
LOUISVILLE/LOU CLOUDY    58  49  72 N7        30.12R
FORT KNOX      CLEAR     51  48  90 N3        30.11R
$$

KYZ035>037-039>044-047>052-055>060-089>105-221000-
NORTHEAST KENTUCKY

CITY           SKY/WX    TMP DP  RH WIND       PRES   REMARKS
LEXINGTON      CLEAR     52  47  83 NW6       30.10R
COVINGTON      PTCLDY    52  45  77 N13       30.10R
FRANKFORT      CLEAR     49  46  90 CALM      30.10R
$$

KYZ054-064>069-076>088-106>120-221000-
SOUTHEAST KENTUCKY

CITY           SKY/WX    TMP DP  RH WIND       PRES   REMARKS
JACKSON        CLEAR     53  46  77 NW5       30.08R
LONDON         CLEAR     53  47  79 CALM      30.10R
SOMERSET       CLEAR     50  46  87 N5        30.11S
MIDDLESBORO    CLEAR     52  51  97 CALM      30.09R
MONTICELLO     SUNNY     49  48  96 CALM      30.12R
$$




USA.gov is the U.S. government's official web portal to all federal, state and local government web resources and services.